TimeMDT,TemperatureF,Dew PointF,Humidity,Sea Level PressureIn,VisibilityMPH,Wind Direction,Wind SpeedMPH,Gust SpeedMPH,PrecipitationIn,Events,Conditions,WindDirDegrees,DateUTC
12:53 AM,37.9,32.0,79,30.44,10.0,SW,5.8,-,N/A,,Mostly Cloudy,230,2013-10-15 06:53:00
1:53 AM,36.0,32.0,86,30.44,10.0,SSW,4.6,-,N/A,,Partly Cloudy,200,2013-10-15 07:53:00
2:53 AM,36.0,33.1,89,30.43,10.0,SW,8.1,-,N/A,,Scattered Clouds,230,2013-10-15 08:53:00
3:53 AM,35.1,32.0,89,30.43,10.0,SW,8.1,-,N/A,,Partly Cloudy,230,2013-10-15 09:53:00
4:53 AM,34.0,32.0,92,30.42,10.0,SSW,9.2,-,N/A,,Mostly Cloudy,210,2013-10-15 10:53:00
5:53 AM,34.0,32.0,92,30.42,10.0,SW,8.1,-,N/A,,Partly Cloudy,230,2013-10-15 11:53:00
6:53 AM,34.0,30.9,89,30.41,10.0,SW,11.5,-,N/A,,Partly Cloudy,230,2013-10-15 12:53:00
7:53 AM,34.0,30.9,89,30.42,10.0,SW,10.4,-,N/A,,Partly Cloudy,220,2013-10-15 13:53:00
8:53 AM,34.0,30.9,89,30.43,10.0,SW,12.7,-,N/A,,Clear,230,2013-10-15 14:53:00
9:53 AM,37.0,32.0,82,30.42,10.0,SW,12.7,-,N/A,,Clear,220,2013-10-15 15:53:00
10:53 AM,39.9,32.0,73,30.40,10.0,SSW,11.5,-,N/A,,Partly Cloudy,210,2013-10-15 16:53:00
11:53 AM,44.1,35.1,71,30.36,10.0,WSW,8.1,-,N/A,,Partly Cloudy,240,2013-10-15 17:53:00
12:53 PM,45.0,34.0,65,30.33,10.0,SW,8.1,-,N/A,,Scattered Clouds,230,2013-10-15 18:53:00
1:53 PM,48.0,33.1,56,30.29,10.0,SSW,11.5,19.6,N/A,,Scattered Clouds,200,2013-10-15 19:53:00
2:53 PM,48.0,30.9,52,30.26,10.0,SW,13.8,-,N/A,,Partly Cloudy,220,2013-10-15 20:53:00
3:53 PM,48.0,30.9,52,30.24,10.0,SW,11.5,-,N/A,,Clear,230,2013-10-15 21:53:00
4:53 PM,48.9,28.9,46,30.22,10.0,WSW,10.4,-,N/A,,Clear,240,2013-10-15 22:53:00
5:53 PM,46.9,27.0,46,30.21,10.0,WSW,11.5,-,N/A,,Clear,240,2013-10-15 23:53:00
6:53 PM,44.1,28.9,55,30.20,10.0,SW,9.2,-,N/A,,Clear,230,2013-10-16 00:53:00
7:53 PM,43.0,28.9,58,30.19,10.0,WSW,15.0,-,N/A,,Clear,240,2013-10-16 01:53:00
8:53 PM,41.0,28.9,62,30.18,10.0,WSW,18.4,-,N/A,,Clear,240,2013-10-16 02:53:00
10:53 PM,39.0,28.0,65,30.15,10.0,WSW,20.7,-,N/A,,Clear,240,2013-10-16 04:53:00
11:53 PM,39.0,27.0,62,30.13,10.0,WSW,19.6,-,N/A,,Clear,240,2013-10-16 05:53:00